#timestamp,LO_Frequency,Hit,StdDev 
1642730415.6,286046998.6,N
1642730435.5,286046998.3,N
1642730455.3,286047001.2,N
1642730475.1,286047000.2,N
1642730495.9,286046999.9,N
1642730515.7,286047002.6,N
1642730535.5,286047002.1,N
1642730555.4,286047002.2,N
1642730575.2,286046999.8,N
1642730595.0,286047001.8,N
1642730595.9,286047001.8,N
1642730615.8,286047003.7,N
1642730635.6,286047004.3,Y
1642730655.4,286047000.2,P
1642730675.3,286047000.0,N
1642730695.1,286047002.8,P
1642730715.8,286047000.6,N
1642730735.7,286046998.3,N
1642730755.5,286047001.2,N
1642730775.3,286047001.8,N
1642730795.2,286047004.4,Y
1642730815.9,286047001.5,P
1642730835.7,286047002.2,P
1642730855.6,286047002.4,P
1642730875.4,286047002.0,Y
1642730895.2,286047001.2,P
1642730915.1,286046998.1,P
1642730916.0,286046998.1,N
1642730935.8,286046996.7,N
1642730955.6,286046999.6,N
1642730975.5,286046999.4,N
1642730995.3,286046996.6,N
1642731015.1,286046997.1,N
1642731035.9,286046997.3,N
1642731055.7,286046997.8,N
1642731075.5,286046997.8,N
1642731095.4,286046997.1,N
1642731115.2,286046999.0,N
1642731135.0,286046997.0,N
1642731135.9,286046997.0,N
1642731155.8,286046996.5,N
1642731175.6,286046998.1,N
1642731195.4,286046998.5,N
1642731215.3,286046999.5,N
1642731235.1,286046999.4,N
1642731255.8,286046999.1,N
1642731275.7,286046999.6,N
1642731295.5,286046998.6,N
1642731315.3,286046996.5,N
1642731335.2,286046998.4,N
1642731355.9,286046996.9,N
1642731375.7,286046995.0,Y
1642731395.6,286046999.2,P
1642731415.4,286046996.7,P
1642731435.2,286046996.9,P
1642731455.1,286046999.3,N
1642731456.0,286046999.3,N
1642731475.8,286046997.1,N
1642731495.6,286046997.3,N
1642731515.5,286046999.2,N
1642731535.3,286046999.3,N
1642731555.1,286046998.1,N
1642731575.9,286047000.5,N
1642731595.7,286046999.0,N
1642731615.5,286046999.2,N
1642731635.4,286046999.4,N
1642731655.2,286046999.6,N
1642731675.0,286046999.6,N
1642731675.9,286046999.6,N
1642731695.8,286046999.3,N
1642731715.6,286046999.2,N
1642731735.4,286046999.0,N
1642731755.3,286047000.7,N
1642731775.1,286046999.3,N
1642731795.8,286046997.2,N
1642731815.7,286046996.8,Y
1642731835.5,286047000.7,P
1642731855.3,286046998.3,N
1642731875.2,286046999.0,N
1642731895.0,286046997.3,Y
1642731895.9,286046997.3,P
1642731915.7,286046999.5,N
1642731935.6,286046997.7,N
1642731955.4,286046997.2,N
1642731975.2,286046996.7,Y
1642731995.1,286046996.5,P
1642731996.0,286046996.5,P
1642732015.8,286046999.5,N
1642732035.6,286046998.1,N
1642732055.5,286046998.7,N
1642732075.3,286047000.0,N
1642732095.1,286047002.7,N
1642732115.9,286047001.8,N
1642732135.7,286047004.0,N
1642732155.5,286047004.2,N
1642732175.4,286047003.4,N
1642732195.2,286047002.6,N
1642732215.0,286047004.3,N
1642732216.0,286047004.3,N
1642732235.8,286047002.2,N
1642732255.6,286047000.4,N
1642732275.4,286047000.1,N
1642732295.3,286047001.2,N
1642732315.1,286047000.5,N
1642732335.8,286047002.6,N
1642732355.7,286047002.5,N
1642732375.5,286047002.3,N
1642732395.3,286047002.0,N
1642732415.2,286047001.8,N
1642732435.0,286047004.2,N
1642732435.9,286047004.2,N
1642732455.8,286047001.3,N
1642732475.6,286047001.5,N
1642732495.4,286047001.7,N
1642732515.2,286047001.8,N
1642732535.1,286047002.6,N
1642732536.0,286047002.6,N
1642732555.8,286046999.7,N
1642732575.7,286047002.1,N
1642732595.5,286047002.8,N
1642732615.3,286047000.1,N
1642732635.1,286046998.1,N
1642732655.9,286046998.2,N
1642732675.7,286047000.7,N
1642732695.6,286046998.1,N
1642732715.4,286047000.9,N
1642732735.2,286046999.9,N
1642732755.1,286046998.1,N
1642732756.0,286046998.1,N
1642732775.8,286046998.1,N
1642732795.6,286046998.7,N
1642732815.5,286046998.8,N
1642732835.3,286046998.8,N
1642732855.1,286046998.3,N
1642732875.9,286046999.5,N
1642732895.7,286046998.8,N
1642732915.5,286047001.2,N
1642732935.4,286046998.6,N
1642732955.2,286046998.4,N
1642732975.0,286047001.1,N
1642732975.9,286047001.1,N
1642732995.8,286047000.9,N
1642733015.6,286047000.5,N
1642733035.4,286046998.6,N
1642733055.3,286046998.4,N
1642733075.1,286046998.3,N
1642733076.0,286046998.3,N
1642733095.8,286046998.6,N
1642733115.7,286047000.4,N
1642733135.5,286047000.8,N
1642733155.3,286046998.2,N
1642733175.2,286046996.6,Y
1642733195.9,286046998.4,P
1642733215.7,286047000.1,N
1642733235.6,286047000.2,N
1642733255.4,286047000.5,N
1642733275.2,286047000.8,N
1642733295.1,286047000.6,N
1642733296.0,286047000.6,N
1642733315.8,286047000.4,N
1642733335.6,286047000.4,N
1642733355.5,286047000.7,N
1642733375.3,286047000.1,N
1642733395.1,286047000.8,N
1642733415.9,286046998.3,N
1642733435.7,286046999.1,N
1642733455.5,286046996.6,Y
1642733475.4,286046999.4,P
1642733495.2,286046999.6,N
1642733515.0,286046996.6,P
1642733515.9,286046996.6,N
1642733535.8,286046996.9,N
1642733555.6,286047001.2,N
1642733575.4,286046998.1,N
1642733595.3,286047000.0,N
1642733615.1,286046999.3,N
1642733635.8,286046996.9,N
1642733655.7,286046994.9,Y
1642733675.5,286046998.4,P
1642733695.3,286046996.6,P
1642733715.2,286046997.9,N
1642733735.0,286046997.0,Y
1642733735.9,286046997.0,P
1642733755.7,286047000.0,N
1642733775.6,286047000.7,N
1642733795.4,286047002.5,N
1642733815.2,286047001.5,N
1642733835.1,286047011.9,Y
1642733836.0,286047001.8,P
1642733855.8,286047001.7,N
1642733875.6,286047002.1,N
1642733895.5,286047000.5,N
1642733915.3,286047001.2,N
1642733935.1,286046998.2,N
1642733955.9,286047000.7,N
1642733975.7,286047002.3,N
1642733995.5,286046999.8,N
